NEMO-HD

Last updated on Tue Oct 15 2024 00:02:25 GMT+0000 (Coordinated Universal Time)

1 46277U 20061F 24288.54634232 .00012745 00000+0 44921-3 0 9999 2 46277 97.2837 348.6117 0002990 87.9350 272.2233 15.29404777228162
UTC large
Height (km)
Speed (km/s)
/
Latitude / Longitude
Inclination (degrees)
Orbital Period (minutes)
Azimuth
Elevation
Range (km)
Doppler Factor

Next 0 passes for location: London (51.5072 / 0.1276)

Sorry there are no passes over London.